| time (UTC) | temp C | wind direction | speed KPH | gust KPH | rain 1hr cm | rain 24hr cm | rain mn cm | humidity % | barometer mb |
| 20260508020504 | 4 | 0 | 0.0 | 0.0 | 0.00 | 0.00 | 0.00 | 98 | 962.8 |
| 20260508015503 | 5 | 0 | 0.0 | 0.0 | 0.00 | 0.00 | 0.00 | 98 | 963.1 |
| 20260508015003 | 5 | 0 | 0.0 | 0.0 | 0.00 | 0.00 | 0.00 | 98 | 963.0 |
| 20260508014505 | 4 | 0 | 0.0 | 0.0 | 0.00 | 0.00 | 0.00 | 98 | 963.2 |
| 20260508014003 | 5 | 0 | 0.0 | 0.0 | 0.00 | 0.00 | 0.00 | 98 | 963.0 |
| 20260508013713 | 5 | 0 | 0.0 | 0.0 | 0.00 | 0.00 | 0.00 | 98 | 963.1 |
| 20260508013005 | 5 | 0 | 0.0 | 0.0 | 0.00 | 0.00 | 0.00 | 98 | 963.1 |
| 20260508012503 | 5 | 0 | 0.0 | 0.0 | 0.00 | 0.00 | 0.00 | 97 | 963.2 |
| 20260508012214 | 5 | 0 | 0.0 | 0.0 | 0.00 | 0.00 | 0.00 | 97 | 963.1 |
| 20260508011503 | 5 | 0 | 0.0 | 0.0 | 0.00 | 0.00 | 0.00 | 97 | 963.1 |
| 20260508011216 | 5 | 0 | 0.0 | 0.0 | 0.00 | 0.00 | 0.00 | 97 | 963.1 |
| 20260508010503 | 5 | 0 | 0.0 | 0.0 | 0.00 | 0.00 | 0.00 | 97 | 962.9 |
| 20260508005503 | 5 | 0 | 0.0 | 0.0 | 0.00 | 0.00 | 0.00 | 97 | 962.9 |
| 20260508005003 | 5 | 0 | 0.0 | 0.0 | 0.00 | 0.00 | 0.00 | 97 | 962.9 |
| 20260508004505 | 5 | 0 | 0.0 | 0.0 | 0.00 | 0.00 | 0.00 | 97 | 962.9 |
| 20260508004214 | 5 | 0 | 0.0 | 0.0 | 0.00 | 0.00 | 0.00 | 97 | 962.7 |
| 20260508003503 | 5 | 0 | 0.0 | 0.0 | 0.00 | 0.00 | 0.00 | 97 | 963.0 |
| 20260508003005 | 5 | 0 | 0.0 | 0.0 | 0.00 | 0.00 | 0.00 | 97 | 963.2 |
| 20260508002503 | 5 | 0 | 0.0 | 0.0 | 0.00 | 0.00 | 0.00 | 97 | 963.0 |
| 20260508002005 | 5 | 0 | 0.0 | 0.0 | 0.00 | 0.00 | 0.00 | 97 | 963.1 |
| 20260508001712 | 5 | 0 | 0.0 | 0.0 | 0.00 | 0.00 | 0.00 | 97 | 963.0 |
| 20260508001003 | 5 | 201 | 0.0 | 1.6 | 0.00 | 0.00 | 0.00 | 96 | 963.1 |
| 20260508000505 | 5 | 201 | 0.0 | 1.6 | 0.00 | 0.00 | 0.00 | 96 | 963.0 |
| 20260507235503 | 5 | 201 | 0.0 | 1.6 | 0.00 | 0.00 | 0.00 | 96 | 962.8 |
| 20260507235005 | 5 | 201 | 0.0 | 1.6 | 0.00 | 0.00 | 0.00 | 96 | 962.9 |
| 20260507234503 | 5 | 201 | 0.0 | 1.6 | 0.00 | 0.00 | 0.00 | 96 | 962.9 |
| 20260507234003 | 5 | 201 | 0.0 | 1.6 | 0.00 | 0.00 | 0.00 | 96 | 963.0 |
| 20260507233714 | 5 | 0 | 0.0 | 0.0 | 0.00 | 0.00 | 0.00 | 96 | 963.0 |
| 20260507233003 | 5 | 201 | 0.0 | 3.2 | 0.00 | 0.00 | 0.00 | 96 | 963.1 |
| 20260507232505 | 5 | 201 | 0.0 | 3.2 | 0.00 | 0.00 | 0.00 | 96 | 963.2 |
| 20260507232213 | 5 | 200 | 0.0 | 3.2 | 0.00 | 0.00 | 0.00 | 96 | 963.1 |
| 20260507231714 | 5 | 0 | 0.0 | 0.0 | 0.00 | 0.00 | 0.00 | 96 | 962.9 |
| 20260507231005 | 5 | 0 | 0.0 | 0.0 | 0.00 | 0.00 | 0.00 | 96 | 963.2 |
| 20260507230503 | 5 | 200 | 0.0 | 1.6 | 0.00 | 0.00 | 0.00 | 95 | 963.1 |
| 20260507225504 | 6 | 0 | 0.0 | 0.0 | 0.00 | 0.00 | 0.00 | 95 | 963.1 |
| 20260507225213 | 6 | 0 | 0.0 | 0.0 | 0.00 | 0.00 | 0.00 | 95 | 963.1 |
| 20260507224505 | 6 | 0 | 0.0 | 0.0 | 0.00 | 0.00 | 0.00 | 95 | 963.2 |
| 20260507224003 | 6 | 0 | 0.0 | 0.0 | 0.00 | 0.00 | 0.00 | 95 | 963.0 |
| 20260507223505 | 6 | 0 | 0.0 | 0.0 | 0.00 | 0.00 | 0.00 | 95 | 963.0 |
| 20260507223003 | 6 | 0 | 0.0 | 0.0 | 0.00 | 0.00 | 0.00 | 94 | 963.2 |
| 20260507222503 | 6 | 0 | 0.0 | 0.0 | 0.00 | 0.00 | 0.00 | 94 | 963.1 |
| 20260507222005 | 6 | 0 | 0.0 | 0.0 | 0.00 | 0.00 | 0.00 | 94 | 963.1 |
| 20260507221503 | 6 | 0 | 0.0 | 0.0 | 0.00 | 0.00 | 0.00 | 94 | 963.1 |
| 20260507221003 | 6 | 0 | 0.0 | 0.0 | 0.00 | 0.00 | 0.00 | 93 | 963.1 |
| 20260507220716 | 6 | 0 | 0.0 | 0.0 | 0.00 | 0.00 | 0.00 | 93 | 963.1 |
| 20260507215505 | 6 | 182 | 0.0 | 1.6 | 0.00 | 0.00 | 0.00 | 93 | 963.0 |
| 20260507215003 | 6 | 0 | 0.0 | 0.0 | 0.00 | 0.00 | 0.00 | 93 | 962.9 |
| 20260507214505 | 6 | 177 | 0.0 | 1.6 | 0.00 | 0.00 | 0.00 | 93 | 962.9 |
| 20260507214003 | 6 | 176 | 0.0 | 1.6 | 0.00 | 0.00 | 0.00 | 93 | 963.0 |
| 20260507213505 | 6 | 176 | 0.0 | 1.6 | 0.00 | 0.00 | 0.00 | 93 | 962.9 |
| 20260507213003 | 6 | 193 | 0.0 | 3.2 | 0.00 | 0.00 | 0.00 | 93 | 962.8 |
| 20260507212503 | 7 | 193 | 0.0 | 3.2 | 0.00 | 0.00 | 0.00 | 93 | 962.9 |
| 20260507212005 | 7 | 173 | 0.0 | 1.6 | 0.00 | 0.00 | 0.00 | 93 | 962.8 |
| 20260507211503 | 7 | 173 | 0.0 | 1.6 | 0.00 | 0.00 | 0.00 | 92 | 962.8 |
| 20260507211005 | 7 | 0 | 0.0 | 0.0 | 0.00 | 0.00 | 0.00 | 92 | 962.9 |
| 20260507210503 | 7 | 107 | 0.0 | 1.6 | 0.00 | 0.00 | 0.00 | 92 | 962.6 |
| 20260507205505 | 7 | 194 | 0.0 | 3.2 | 0.00 | 0.00 | 0.00 | 92 | 962.7 |
| 20260507205003 | 7 | 198 | 0.0 | 3.2 | 0.00 | 0.00 | 0.00 | 91 | 962.5 |
| 20260507204505 | 7 | 204 | 0.0 | 3.2 | 0.00 | 0.00 | 0.00 | 91 | 962.4 |
| 20260507204214 | 7 | 203 | 0.0 | 1.6 | 0.00 | 0.00 | 0.00 | 91 | 962.6 |
| 20260507203503 | 7 | 0 | 0.0 | 0.0 | 0.00 | 0.00 | 0.00 | 92 | 962.6 |
| 20260507203005 | 7 | 0 | 0.0 | 0.0 | 0.00 | 0.00 | 0.00 | 91 | 962.5 |
| 20260507202503 | 8 | 0 | 0.0 | 0.0 | 0.00 | 0.00 | 0.00 | 91 | 962.3 |
| 20260507202214 | 8 | 0 | 0.0 | 0.0 | 0.00 | 0.00 | 0.00 | 91 | 962.3 |
| 20260507201715 | 8 | 0 | 0.0 | 0.0 | 0.00 | 0.00 | 0.00 | 91 | 962.1 |
| 20260507201003 | 8 | 0 | 0.0 | 0.0 | 0.00 | 0.00 | 0.00 | 90 | 962.2 |
| 20260507200504 | 8 | 0 | 0.0 | 0.0 | 0.00 | 0.00 | 0.00 | 90 | 962.3 |
| 20260507195715 | 8 | 0 | 0.0 | 0.0 | 0.00 | 0.00 | 0.00 | 90 | 962.3 |
| 20260507195004 | 8 | 0 | 0.0 | 0.0 | 0.00 | 0.00 | 0.00 | 90 | 961.9 |
| 20260507194713 | 8 | 0 | 0.0 | 0.0 | 0.00 | 0.00 | 0.00 | 90 | 962.0 |
| 20260507194005 | 9 | 0 | 0.0 | 0.0 | 0.00 | 0.00 | 0.00 | 90 | 961.8 |
| 20260507193503 | 9 | 0 | 0.0 | 0.0 | 0.00 | 0.00 | 0.00 | 90 | 961.9 |
| 20260507193005 | 9 | 0 | 0.0 | 0.0 | 0.00 | 0.00 | 0.00 | 89 | 961.7 |
| 20260507192503 | 10 | 0 | 0.0 | 0.0 | 0.00 | 0.00 | 0.00 | 88 | 961.5 |
| 20260507192005 | 10 | 0 | 0.0 | 0.0 | 0.00 | 0.00 | 0.00 | 89 | 961.4 |
| 20260507191505 | 10 | 0 | 0.0 | 0.0 | 0.00 | 0.00 | 0.00 | 89 | 961.6 |
| 20260507191003 | 10 | 0 | 0.0 | 0.0 | 0.00 | 0.05 | 0.00 | 88 | 961.4 |
| 20260507190504 | 10 | 206 | 0.0 | 3.2 | 0.00 | 0.18 | 0.00 | 87 | 961.2 |
| 20260507185713 | 11 | 193 | 0.0 | 3.2 | 0.00 | 0.18 | 0.00 | 86 | 960.9 |
| 20260507185005 | 11 | 203 | 0.0 | 4.8 | 0.00 | 0.20 | 0.00 | 84 | 960.9 |
| 20260507184503 | 11 | 206 | 0.0 | 1.6 | 0.00 | 0.20 | 0.00 | 84 | 960.6 |
| 20260507184214 | 11 | 211 | 0.0 | 1.6 | 0.00 | 0.20 | 0.00 | 83 | 960.6 |
| 20260507183505 | 12 | 203 | 1.6 | 3.2 | 0.00 | 0.20 | 0.00 | 82 | 960.6 |
| 20260507183003 | 12 | 198 | 1.6 | 4.8 | 0.00 | 0.28 | 0.00 | 78 | 960.6 |
| 20260507182503 | 12 | 200 | 0.0 | 4.8 | 0.00 | 0.51 | 0.00 | 75 | 960.6 |
| 20260507182005 | 14 | 136 | 0.0 | 4.8 | 0.00 | 0.53 | 0.00 | 73 | 960.2 |
| 20260507181503 | 14 | 19 | 1.6 | 12.9 | 0.00 | 0.56 | 0.00 | 62 | 960.3 |
| 20260507181215 | 15 | 15 | 1.6 | 12.9 | 0.00 | 0.56 | 0.00 | 67 | 960.6 |
| 20260507180714 | 15 | 13 | 1.6 | 14.5 | 0.00 | 0.56 | 0.00 | 61 | 960.4 |
| 20260507175505 | 15 | 37 | 3.2 | 11.3 | 0.00 | 0.56 | 0.00 | 61 | 960.3 |
| 20260507175003 | 15 | 41 | 3.2 | 11.3 | 0.00 | 0.56 | 0.00 | 61 | 960.7 |
| 20260507174503 | 15 | 353 | 3.2 | 11.3 | 0.00 | 0.56 | 0.00 | 59 | 960.3 |
| 20260507174005 | 15 | 11 | 3.2 | 11.3 | 0.00 | 0.56 | 0.00 | 56 | 960.3 |
| 20260507173714 | 16 | 19 | 3.2 | 11.3 | 0.00 | 0.56 | 0.00 | 55 | 960.3 |
| 20260507173005 | 16 | 21 | 3.2 | 11.3 | 0.00 | 0.56 | 0.00 | 53 | 960.0 |
| 20260507172503 | 16 | 28 | 1.6 | 9.7 | 0.00 | 0.56 | 0.00 | 54 | 959.9 |
| 20260507172003 | 16 | 15 | 1.6 | 6.4 | 0.00 | 0.56 | 0.00 | 56 | 960.0 |
| 20260507171505 | 16 | 22 | 0.0 | 6.4 | 0.00 | 0.56 | 0.00 | 56 | 960.1 |
| 20260507171003 | 16 | 216 | 0.0 | 3.2 | 0.00 | 0.56 | 0.00 | 60 | 959.8 |
| 20260507170503 | 16 | 323 | 0.0 | 4.8 | 0.00 | 0.56 | 0.00 | 63 | 959.8 |
| 20260507165503 | 16 | 155 | 1.6 | 9.7 | 0.00 | 0.56 | 0.00 | 63 | 959.7 |
| 20260507165003 | 16 | 132 | 1.6 | 9.7 | 0.00 | 0.56 | 0.00 | 55 | 959.8 |
| 20260507164505 | 16 | 117 | 1.6 | 9.7 | 0.00 | 0.56 | 0.00 | 55 | 959.4 |
| 20260507164003 | 16 | 120 | 3.2 | 20.9 | 0.00 | 0.56 | 0.00 | 54 | 959.6 |
| 20260507163505 | 17 | 130 | 4.8 | 20.9 | 0.00 | 0.56 | 0.00 | 52 | 959.6 |
| 20260507163003 | 17 | 135 | 4.8 | 14.5 | 0.00 | 0.56 | 0.00 | 52 | 959.6 |
| 20260507162505 | 17 | 152 | 3.2 | 14.5 | 0.00 | 0.56 | 0.00 | 51 | 959.6 |
| 20260507162003 | 17 | 140 | 3.2 | 9.7 | 0.00 | 0.56 | 0.00 | 50 | 959.6 |
| 20260507161716 | 17 | 137 | 3.2 | 14.5 | 0.00 | 0.56 | 0.00 | 50 | 959.4 |
| 20260507161003 | 18 | 107 | 4.8 | 20.9 | 0.00 | 0.56 | 0.00 | 49 | 959.5 |
| 20260507160503 | 18 | 134 | 3.2 | 11.3 | 0.00 | 0.56 | 0.00 | 47 | 959.5 |
| 20260507155503 | 18 | 123 | 4.8 | 22.5 | 0.00 | 0.56 | 0.00 | 45 | 959.2 |
| 20260507155005 | 19 | 147 | 3.2 | 16.1 | 0.00 | 0.56 | 0.00 | 43 | 959.4 |
| 20260507154503 | 20 | 56 | 1.6 | 12.9 | 0.00 | 0.56 | 0.00 | 44 | 959.4 |
| 20260507154005 | 20 | 86 | 1.6 | 12.9 | 0.00 | 0.56 | 0.00 | 46 | 959.2 |
| 20260507153504 | 20 | 200 | 3.2 | 11.3 | 0.00 | 0.56 | 0.00 | 45 | 959.2 |
| 20260507153005 | 20 | 184 | 3.2 | 11.3 | 0.00 | 0.56 | 0.00 | 46 | 959.1 |
| 20260507152504 | 20 | 166 | 1.6 | 11.3 | 0.00 | 0.56 | 0.00 | 43 | 958.9 |
| 20260507152005 | 21 | 245 | 1.6 | 11.3 | 0.00 | 0.56 | 0.00 | 44 | 958.8 |
| 20260507151504 | 20 | 248 | 1.6 | 11.3 | 0.00 | 0.56 | 0.00 | 43 | 958.8 |
| 20260507151003 | 21 | 210 | 1.6 | 6.4 | 0.00 | 0.56 | 0.00 | 41 | 958.7 |
| 20260507150715 | 21 | 187 | 1.6 | 6.4 | 0.00 | 0.56 | 0.00 | 42 | 958.8 |
| 20260507145505 | 20 | 172 | 1.6 | 6.4 | 0.00 | 0.56 | 0.00 | 45 | 958.7 |
| 20260507145003 | 19 | 168 | 1.6 | 9.7 | 0.00 | 0.56 | 0.00 | 44 | 958.8 |
| 20260507144503 | 19 | 180 | 3.2 | 9.7 | 0.00 | 0.56 | 0.00 | 45 | 958.6 |
| 20260507144214 | 20 | 170 | 3.2 | 16.1 | 0.00 | 0.56 | 0.00 | 43 | 958.8 |
| 20260507143503 | 20 | 164 | 4.8 | 16.1 | 0.00 | 0.56 | 0.00 | 39 | 958.9 |
| 20260507143004 | 20 | 79 | 4.8 | 14.5 | 0.00 | 0.56 | 0.00 | 42 | 958.9 |
| 20260507142505 | 20 | 87 | 4.8 | 14.5 | 0.00 | 0.56 | 0.00 | 46 | 958.9 |
| 20260507142003 | 20 | 166 | 4.8 | 14.5 | 0.00 | 0.56 | 0.00 | 44 | 958.8 |
| 20260507141503 | 20 | 159 | 4.8 | 17.7 | 0.00 | 0.56 | 0.00 | 44 | 958.7 |
| 20260507141006 | 20 | 149 | 3.2 | 17.7 | 0.00 | 0.56 | 0.00 | 45 | 958.8 |
| 20260507140503 | 21 | 195 | 1.6 | 6.4 | 0.00 | 0.56 | 0.00 | 45 | 958.5 |
| 20260507135715 | 21 | 243 | 1.6 | 9.7 | 0.00 | 0.56 | 0.00 | 44 | 958.5 |
| 20260507135003 | 21 | 100 | 3.2 | 12.9 | 0.00 | 0.64 | 0.00 | 44 | 958.4 |
| 20260507134505 | 20 | 67 | 3.2 | 12.9 | 0.00 | 0.64 | 0.00 | 47 | 958.7 |
| 20260507134004 | 20 | 293 | 1.6 | 6.4 | 0.00 | 0.64 | 0.00 | 49 | 958.6 |
| 20260507133505 | 20 | 211 | 1.6 | 6.4 | 0.00 | 0.64 | 0.00 | 50 | 958.7 |
| 20260507133214 | 20 | 183 | 1.6 | 6.4 | 0.00 | 0.64 | 0.00 | 49 | 958.7 |
| 20260507132503 | 21 | 122 | 1.6 | 4.8 | 0.00 | 0.64 | 0.00 | 45 | 958.8 |
| 20260507132005 | 20 | 142 | 1.6 | 4.8 | 0.00 | 0.64 | 0.00 | 45 | 958.8 |
| 20260507131503 | 20 | 230 | 1.6 | 6.4 | 0.00 | 0.64 | 0.00 | 49 | 958.9 |
| 20260507131005 | 20 | 216 | 3.2 | 6.4 | 0.00 | 0.64 | 0.00 | 50 | 958.9 |
| 20260507130503 | 20 | 210 | 3.2 | 14.5 | 0.00 | 0.64 | 0.00 | 54 | 958.9 |
| 20260507125503 | 21 | 236 | 1.6 | 6.4 | 0.00 | 0.66 | 0.00 | 50 | 958.8 |
| 20260507125004 | 21 | 298 | 1.6 | 6.4 | 0.00 | 0.66 | 0.00 | 49 | 958.9 |
| 20260507124504 | 20 | 299 | 1.6 | 6.4 | 0.00 | 0.66 | 0.00 | 49 | 959.0 |
| 20260507124215 | 20 | 147 | 3.2 | 16.1 | 0.00 | 0.66 | 0.00 | 51 | 959.0 |
| 20260507123503 | 20 | 127 | 1.6 | 16.1 | 0.00 | 0.66 | 0.00 | 47 | 959.1 |
| 20260507123003 | 20 | 273 | 1.6 | 3.2 | 0.00 | 0.66 | 0.00 | 52 | 958.9 |
| 20260507122505 | 20 | 282 | 1.6 | 3.2 | 0.00 | 0.66 | 0.00 | 49 | 959.0 |
| 20260507122004 | 20 | 20 | 1.6 | 4.8 | 0.00 | 0.66 | 0.00 | 54 | 959.1 |
| 20260507121505 | 20 | 167 | 1.6 | 4.8 | 0.00 | 0.66 | 0.00 | 51 | 959.1 |
| 20260507121003 | 19 | 176 | 1.6 | 9.7 | 0.00 | 0.66 | 0.00 | 55 | 959.4 |
| 20260507120503 | 19 | 158 | 3.2 | 11.3 | 0.00 | 0.66 | 0.00 | 48 | 959.4 |
| 20260507115504 | 19 | 131 | 1.6 | 4.8 | 0.00 | 0.66 | 0.00 | 53 | 959.4 |
| 20260507115005 | 19 | 108 | 1.6 | 3.2 | 0.00 | 0.66 | 0.00 | 51 | 959.1 |
| 20260507114503 | 19 | 175 | 1.6 | 3.2 | 0.00 | 0.66 | 0.00 | 55 | 959.4 |
| 20260507114003 | 19 | 209 | 1.6 | 4.8 | 0.00 | 0.66 | 0.00 | 57 | 959.3 |
| 20260507113505 | 18 | 224 | 1.6 | 4.8 | 0.00 | 0.66 | 0.00 | 58 | 959.4 |
| 20260507113004 | 18 | 220 | 1.6 | 6.4 | 0.00 | 0.66 | 0.00 | 58 | 959.4 |
| 20260507112505 | 18 | 235 | 1.6 | 6.4 | 0.00 | 0.66 | 0.00 | 56 | 959.5 |
| 20260507112003 | 18 | 221 | 3.2 | 6.4 | 0.00 | 0.69 | 0.00 | 56 | 959.5 |
| 20260507111506 | 20 | 207 | 1.6 | 6.4 | 0.00 | 0.71 | 0.00 | 57 | 959.8 |
| 20260507111003 | 18 | 270 | 1.6 | 6.4 | 0.00 | 0.74 | 0.00 | 57 | 959.7 |
| 20260507110505 | 18 | 284 | 1.6 | 6.4 | 0.00 | 0.74 | 0.00 | 57 | 959.7 |
| 20260507105505 | 19 | 168 | 1.6 | 4.8 | 0.00 | 0.74 | 0.00 | 57 | 959.6 |
| 20260507105212 | 19 | 173 | 1.6 | 9.7 | 0.00 | 0.74 | 0.00 | 57 | 959.6 |
| 20260507104505 | 19 | 193 | 1.6 | 9.7 | 0.00 | 0.74 | 0.00 | 57 | 959.8 |
| 20260507104003 | 18 | 208 | 1.6 | 9.7 | 0.00 | 0.74 | 0.00 | 59 | 959.7 |
| 20260507103505 | 19 | 230 | 1.6 | 6.4 | 0.00 | 0.74 | 0.00 | 61 | 959.7 |
| 20260507103005 | 20 | 230 | 1.6 | 6.4 | 0.00 | 0.74 | 0.00 | 59 | 959.7 |
| 20260507102503 | 19 | 173 | 1.6 | 12.9 | 0.00 | 0.74 | 0.00 | 59 | 959.8 |
| 20260507102003 | 18 | 188 | 3.2 | 12.9 | 0.00 | 0.74 | 0.00 | 61 | 959.8 |
| 20260507101504 | 19 | 213 | 1.6 | 6.4 | 0.00 | 0.74 | 0.00 | 64 | 959.9 |
| 20260507101003 | 20 | 276 | 0.0 | 3.2 | 0.00 | 0.74 | 0.00 | 61 | 959.9 |
| 20260507100505 | 18 | 215 | 1.6 | 4.8 | 0.00 | 0.74 | 0.00 | 67 | 960.0 |
| 20260507095503 | 17 | 205 | 1.6 | 6.4 | 0.00 | 0.76 | 0.00 | 68 | 960.0 |
| 20260507095005 | 18 | 189 | 1.6 | 4.8 | 0.00 | 0.76 | 0.00 | 67 | 959.9 |
| 20260507094713 | 17 | 178 | 1.6 | 4.8 | 0.00 | 0.76 | 0.00 | 72 | 960.0 |
| 20260507094005 | 17 | 187 | 1.6 | 14.5 | 0.00 | 0.84 | 0.00 | 71 | 960.1 |
| 20260507093503 | 17 | 185 | 1.6 | 14.5 | 0.00 | 0.89 | 0.00 | 71 | 960.1 |
| 20260507093005 | 17 | 196 | 1.6 | 4.8 | 0.00 | 0.91 | 0.00 | 70 | 960.0 |
| 20260507092503 | 17 | 237 | 1.6 | 4.8 | 0.00 | 0.94 | 0.00 | 75 | 960.0 |
| 20260507092003 | 17 | 244 | 1.6 | 4.8 | 0.00 | 0.99 | 0.00 | 72 | 960.0 |
| 20260507091715 | 17 | 223 | 1.6 | 4.8 | 0.00 | 1.02 | 0.00 | 70 | 960.1 |
| 20260507091214 | 17 | 214 | 1.6 | 4.8 | 0.00 | 1.04 | 0.00 | 69 | 959.9 |
| 20260507090503 | 17 | 179 | 1.6 | 9.7 | 0.00 | 1.09 | 0.00 | 69 | 960.0 |
| 20260507085503 | 18 | 28 | 0.0 | 6.4 | 0.00 | 1.14 | 0.00 | 67 | 959.9 |
| 20260507085003 | 17 | 334 | 1.6 | 6.4 | 0.00 | 1.17 | 0.00 | 68 | 960.0 |
| 20260507084505 | 17 | 309 | 1.6 | 3.2 | 0.00 | 1.19 | 0.00 | 68 | 960.1 |
| 20260507084003 | 18 | 237 | 0.0 | 3.2 | 0.00 | 1.24 | 0.00 | 70 | 959.9 |
| 20260507083505 | 18 | 221 | 0.0 | 4.8 | 0.00 | 1.30 | 0.00 | 68 | 960.0 |
| 20260507083003 | 17 | 211 | 1.6 | 4.8 | 0.00 | 1.35 | 0.00 | 69 | 960.0 |
| 20260507082505 | 16 | 214 | 1.6 | 4.8 | 0.00 | 1.37 | 0.00 | 75 | 960.0 |
| 20260507082004 | 16 | 209 | 1.6 | 6.4 | 0.00 | 1.40 | 0.00 | 76 | 959.9 |
| 20260507081503 | 16 | 186 | 1.6 | 6.4 | 0.00 | 1.42 | 0.00 | 75 | 959.9 |
| 20260507081005 | 16 | 182 | 1.6 | 6.4 | 0.00 | 1.42 | 0.00 | 78 | 959.9 |
| 20260507080713 | 16 | 202 | 1.6 | 6.4 | 0.00 | 1.42 | 0.00 | 77 | 960.0 |
| 20260507075714 | 17 | 201 | 1.6 | 4.8 | 0.00 | 1.42 | 0.00 | 77 | 959.8 |
| 20260507075003 | 15 | 167 | 1.6 | 4.8 | 0.00 | 1.42 | 0.00 | 82 | 959.8 |
| 20260507074715 | 15 | 155 | 0.0 | 4.8 | 0.00 | 1.42 | 0.00 | 84 | 959.9 |
| 20260507074003 | 15 | 62 | 0.0 | 4.8 | 0.00 | 1.42 | 0.00 | 88 | 959.9 |
| 20260507073505 | 15 | 70 | 0.0 | 4.8 | 0.00 | 1.42 | 0.00 | 87 | 959.7 |
| 20260507073213 | 15 | 66 | 0.0 | 4.8 | 0.00 | 1.42 | 0.00 | 82 | 959.6 |
| 20260507072504 | 13 | 77 | 0.0 | 1.6 | 0.00 | 1.42 | 0.00 | 90 | 959.7 |
| 20260507072005 | 13 | 90 | 0.0 | 1.6 | 0.00 | 1.42 | 0.00 | 96 | 959.7 |
| 20260507071504 | 12 | 97 | 0.0 | 3.2 | 0.00 | 1.42 | 0.00 | 99 | 959.7 |
| 20260507071003 | 12 | 70 | 0.0 | 6.4 | 0.00 | 1.42 | 0.00 | 99 | 959.7 |
| 20260507070505 | 11 | 64 | 0.0 | 6.4 | 0.00 | 1.42 | 0.00 | 99 | 959.8 |
| 20260507065503 | 11 | 138 | 0.0 | 1.6 | 0.00 | 1.42 | 0.00 | 99 | 959.9 |
| 20260507065005 | 11 | 0 | 0.0 | 0.0 | 0.00 | 1.42 | 0.00 | 99 | 959.6 |
| 20260507064503 | 11 | 0 | 0.0 | 0.0 | 0.00 | 1.42 | 0.00 | 99 | 959.7 |
| 20260507064215 | 12 | 0 | 0.0 | 0.0 | 0.00 | 1.42 | 0.00 | 99 | 959.8 |
| 20260507063503 | 12 | 0 | 0.0 | 0.0 | 0.00 | 1.42 | 0.00 | 99 | 959.7 |
| 20260507063005 | 11 | 0 | 0.0 | 0.0 | 0.00 | 1.42 | 0.00 | 99 | 959.8 |
| 20260507062714 | 11 | 0 | 0.0 | 0.0 | 0.00 | 1.42 | 0.00 | 99 | 959.7 |
| 20260507062213 | 11 | 0 | 0.0 | 0.0 | 0.00 | 1.42 | 0.00 | 99 | 959.9 |
| 20260507061505 | 10 | 0 | 0.0 | 0.0 | 0.00 | 1.42 | 0.00 | 99 | 959.6 |
| 20260507061213 | 10 | 0 | 0.0 | 0.0 | 0.00 | 1.42 | 0.00 | 99 | 959.8 |
| 20260507060714 | 10 | 0 | 0.0 | 0.0 | 0.00 | 1.42 | 0.00 | 99 | 959.5 |
| 20260507055503 | 10 | 0 | 0.0 | 0.0 | 0.00 | 1.42 | 0.00 | 99 | 959.6 |
| 20260507055005 | 10 | 0 | 0.0 | 0.0 | 0.00 | 1.42 | 0.00 | 99 | 959.5 |
| 20260507054503 | 10 | 0 | 0.0 | 0.0 | 0.00 | 1.42 | 0.00 | 99 | 959.4 |
| 20260507054005 | 9 | 0 | 0.0 | 0.0 | 0.00 | 1.42 | 0.00 | 99 | 959.7 |
| 20260507053503 | 9 | 0 | 0.0 | 0.0 | 0.00 | 1.42 | 0.00 | 99 | 959.6 |
| 20260507053214 | 9 | 0 | 0.0 | 0.0 | 0.00 | 1.42 | 0.00 | 99 | 959.3 |
| 20260507052713 | 9 | 0 | 0.0 | 0.0 | 0.00 | 1.42 | 0.00 | 99 | 959.2 |
| 20260507052003 | 8 | 0 | 0.0 | 0.0 | 0.00 | 1.42 | 0.00 | 99 | 959.3 |
| 20260507051505 | 8 | 0 | 0.0 | 0.0 | 0.00 | 1.42 | 0.00 | 99 | 959.2 |
| 20260507050505 | 8 | 0 | 0.0 | 0.0 | 0.00 | 1.42 | 0.00 | 99 | 958.9 |
| 20260507045503 | 8 | 175 | 0.0 | 3.2 | 0.00 | 1.42 | 0.00 | 99 | 958.9 |
| 20260507045005 | 8 | 165 | 0.0 | 3.2 | 0.00 | 1.42 | 0.00 | 99 | 959.0 |
| 20260507044503 | 8 | 0 | 0.0 | 0.0 | 0.00 | 1.42 | 0.00 | 99 | 959.0 |
| 20260507044214 | 8 | 203 | 0.0 | 1.6 | 0.00 | 1.42 | 0.00 | 99 | 959.0 |
| 20260507043503 | 8 | 203 | 0.0 | 1.6 | 0.00 | 1.42 | 0.00 | 99 | 959.0 |
| 20260507043004 | 8 | 0 | 0.0 | 0.0 | 0.00 | 1.42 | 0.00 | 99 | 958.9 |
| 20260507042505 | 8 | 0 | 0.0 | 0.0 | 0.00 | 1.42 | 0.00 | 99 | 959.0 |
| 20260507042214 | 8 | 0 | 0.0 | 0.0 | 0.00 | 1.42 | 0.00 | 99 | 959.1 |
| 20260507041503 | 8 | 203 | 0.0 | 3.2 | 0.00 | 1.42 | 0.00 | 99 | 958.7 |
| 20260507041005 | 8 | 202 | 0.0 | 3.2 | 0.00 | 1.42 | 0.00 | 99 | 958.8 |
| 20260507040713 | 8 | 202 | 0.0 | 3.2 | 0.00 | 1.42 | 0.00 | 99 | 958.8 |
| 20260507035713 | 8 | 208 | 0.0 | 1.6 | 0.00 | 1.42 | 0.00 | 99 | 958.7 |
| 20260507035005 | 8 | 208 | 0.0 | 1.6 | 0.00 | 1.42 | 0.00 | 99 | 958.7 |
| 20260507034503 | 8 | 208 | 0.0 | 1.6 | 0.00 | 1.42 | 0.00 | 99 | 958.7 |
| 20260507034005 | 8 | 202 | 0.0 | 3.2 | 0.00 | 1.42 | 0.00 | 99 | 958.7 |
| 20260507033503 | 8 | 201 | 0.0 | 3.2 | 0.00 | 1.42 | 0.00 | 99 | 958.5 |
| 20260507033214 | 8 | 201 | 0.0 | 3.2 | 0.00 | 1.42 | 0.00 | 99 | 958.7 |
| 20260507032505 | 8 | 0 | 0.0 | 0.0 | 0.00 | 1.42 | 0.00 | 99 | 958.9 |
| 20260507032003 | 8 | 0 | 0.0 | 0.0 | 0.00 | 1.42 | 0.00 | 99 | 958.8 |
| 20260507031503 | 8 | 168 | 0.0 | 3.2 | 0.00 | 1.42 | 0.00 | 99 | 958.6 |
| 20260507031216 | 8 | 168 | 0.0 | 3.2 | 0.00 | 1.42 | 0.00 | 99 | 958.7 |
| 20260507030712 | 8 | 157 | 0.0 | 3.2 | 0.00 | 1.42 | 0.00 | 99 | 958.7 |
| 20260507025503 | 8 | 0 | 0.0 | 0.0 | 0.00 | 1.42 | 0.00 | 99 | 958.3 |
| 20260507025005 | 8 | 0 | 0.0 | 0.0 | 0.00 | 1.42 | 0.00 | 99 | 958.5 |
| 20260507024503 | 8 | 0 | 0.0 | 0.0 | 0.00 | 1.42 | 0.00 | 99 | 958.4 |
| 20260507024003 | 8 | 0 | 0.0 | 0.0 | 0.00 | 1.42 | 0.00 | 99 | 958.6 |
| 20260507023714 | 8 | 0 | 0.0 | 0.0 | 0.00 | 1.42 | 0.00 | 99 | 958.6 |
| 20260507023003 | 9 | 105 | 0.0 | 1.6 | 0.00 | 1.42 | 0.00 | 99 | 958.4 |
| 20260507022503 | 9 | 104 | 0.0 | 1.6 | 0.00 | 1.42 | 0.00 | 99 | 958.6 |
| 20260507022005 | 9 | 103 | 0.0 | 1.6 | 0.00 | 1.42 | 0.00 | 99 | 958.5 |
| 20260507021503 | 9 | 0 | 0.0 | 0.0 | 0.00 | 1.42 | 0.00 | 99 | 958.6 |
| 20260507021005 | 9 | 0 | 0.0 | 0.0 | 0.00 | 1.42 | 0.00 | 99 | 958.6 |